Overview Statistics Trail Chart Weather Telemetry Raw packets
 

This is the latest recevied weather packets stored in our database for station/object OE3MHU-12. If no packets are shown the sender has not sent any weather packets the latest 10 day(s).

<< 2 3 4 5 6 7 8 >>
Time Temp. Humidity Pressure Rain* Wind** Luminosity Snow
1788414176 14.44° C 79% 1019.3 hPa 0 mm - - -
1788412376 14.44° C 80% 1019.1 hPa 0 mm - - -
1788410576 14.44° C 81% 1019 hPa 0 mm - - -
1788408778 - - - - - - -
1788408776 14.44° C 81% 1018.9 hPa 0 mm - - -
1788406976 13.89° C 81% 1018.8 hPa 0 mm - - -
1788405176 14.44° C 80% 1019 hPa 0 mm - - -
1788403376 14.44° C 80% 1019 hPa 0 mm - - -
1788401576 14.44° C 80% 1018.9 hPa 0 mm - - -
1788399814 14.44° C 79% 1019 hPa 0 mm - - -
1788399776 14.44° C 79% 1019 hPa 0 mm - - -
1788397976 13.89° C 79% 1019.1 hPa 0 mm - - -
1788396177 13.89° C 79% 1019.1 hPa 0 mm - - -
1788394377 13.89° C 79% 1019 hPa 0 mm - - -
1788392577 13.89° C 78% 1019.2 hPa 0 mm - - -
1788390777 14.44° C 76% 1019.4 hPa 0 mm - - -
1788388977 15° C 76% 1019.3 hPa 0 mm - - -
1788387177 15.56° C 74% 1019.3 hPa 0 mm - - -
1788385377 16.11° C 73% 1019.3 hPa 0 mm - - -
1788383577 16.67° C 72% 1019.2 hPa 0 mm - - -
1788381777 17.78° C 70% 1018.9 hPa 0 mm - - -
1788379977 18.33° C 68% 1019 hPa 0 mm - - -
1788378177 18.89° C 67% 1018.9 hPa 0 mm - - -
1788376378 19.44° C 65% 1018.9 hPa 0 mm - - -
1788374579 20.56° C 62% 1018.7 hPa 0 mm - - -

* Rain latest hour (hover to see other rain measurements)
** Current wind speed in m/s (hover to see current wind gust speed)